Flag for Germany Weather past 2 weeks in Senftenberg, Brandenburg, Germany

Now
76 °F

Overcast.


Feels Like: 78 °F
Forecast: 60 / 73 °F
Wind: 7 mph from Southwest

Location: Cottbus

Current Time: Jun 2, 2015 at 7:48:50 PM

Latest Report: Jun 2, 2015 at 7:00 PM


Visibility: 44 mi

Pressure: 29.93 "Hg

Humidity: 39%

Dew point: 49 °F

Location of SenftenbergLocation

Historic Weather in Senftenberg — Graph

°F

Senftenberg temperature yesterday

Maximum temperature yesterday: 69 °F (at 10:00 AM)
Minimum temperature yesterday: 55 °F (at 7:00 PM)
Average temperature yesterday: 60 °F

Past Weeks' High & Low Weather Summary

 TemperatureHumidityPressure
High78 °F (Jun 2, 5:00 PM)100% (Jun 2, 5:00 AM)30.33 "Hg (Jun 2, 5:00 AM)
Low35 °F (May 22, 5:00 AM)28% (May 24, 5:00 PM)29.63 "Hg (May 19, 3:00 AM)
Average58 °F64%29.99 "Hg
* Reported May 18 6:00 PM — Jun 2 6:00 PM, Senftenberg, Weather by CustomWeather, © 2015

Note: Actual official high and low records may vary slightly from our data, if they occured in-between our weather recording intervals... More about our weather records

Advertising

Senftenberg weather history for previous 24 hours

 ConditionsComfort  
Time TempWeatherWind HumidityBarometerVisibility
6:00 PM
Tue, Jun 2
77 °FPassing clouds.8 mph35%29.93 "Hg14 mi
5:00 PM78 °FScattered clouds.8 mph35%29.93 "Hg15 mi
4:00 PM74 °FOvercast.8 mph38%29.95 "Hg34 mi
3:00 PM74 °FOvercast.9 mph36%29.96 "Hg25 mi
2:00 PM72 °FOvercast.8 mph38%29.97 "Hg28 mi
1:00 PM72 °FOvercast.9 mph40%29.96 "Hg22 mi
12:00 PM69 °FOvercast.8 mph46%29.98 "Hg17 mi
11:00 AM66 °FScattered clouds.8 mph54%29.99 "Hg22 mi
10:00 AM64 °FSunny.7 mph58%29.99 "Hg22 mi
9:00 AM61 °FPartly sunny.7 mph69%29.99 "Hg19 mi
8:00 AM59 °FOvercast.5 mph81%29.99 "Hg12 mi
7:00 AM54 °FScattered clouds.2 mph95%30.01 "Hg5 mi
5:00 AM51 °FFog.1 mph100%30.01 "Hg4 mi
4:00 AM52 °FFog.3 mph99%30.01 "Hg4 mi
3:00 AM54 °FOvercast.2 mph95%30.03 "Hg7 mi
2:00 AM54 °FOvercast.1 mph98%30.04 "Hg5 mi
1:00 AM55 °FFog.2 mph97%30.05 "Hg4 mi
12:00 AM55 °FFog.1 mph96%30.05 "Hg4 mi
11:00 PM
Mon, Jun 1
55 °FFog.1 mph99%30.04 "Hg4 mi
10:00 PM55 °FLow clouds.1 mph97%30.05 "Hg5 mi
9:00 PM56 °FLow clouds.1 mph97%30.04 "Hg7 mi
8:00 PM55 °FLow clouds.1 mph96%30.05 "Hg7 mi
7:00 PM55 °FRain. Low clouds.2 mph99%30.07 "Hg1 mi
Weather by CustomWeather, © 2015

See weather overviewHow to use our weather pages